Location: *
(40.7873°S, 98.7174°E)
Time: 07:23:01
(UTC+00:00)

CBERS 1 LM4 rocket - Visible Passes

Search period start: 06 October 2022 00:00
Search period end: 16 October 2022 00:00
Orbit: 701 x 840 km, 98.8° (Epoch: 06 October)

Date Brightness Start Highest point End Pass type
(mag) Time Alt. Az. Time Alt. Az. Time Alt. Az.
06 Oct 7.7 12:59:39 10° SSW 13:02:08 14° WSW 13:04:38 10° W visible
06 Oct 7.8 20:58:26 10° E 21:00:25 12° ESE 21:02:23 10° SE visible
07 Oct 6.8 12:23:07 10° S 12:27:19 28° WSW 12:31:37 10° NW visible
07 Oct 5.6 21:59:06 10° NE 22:03:42 47° ESE 22:08:19 10° S visible
08 Oct 7.1 21:25:05 10° ENE 21:28:47 22° ESE 21:32:28 10° SSE visible
09 Oct 7.6 12:52:43 10° SSW 12:55:45 16° WSW 12:58:50 10° W visible
09 Oct 8.0 20:53:03 10° ESE 20:54:01 11° ESE 20:55:00 10° SE visible
10 Oct 6.6 12:16:27 10° S 12:20:55 33° WSW 12:25:28 10° NW visible
10 Oct 5.9 21:52:47 10° NE 21:57:15 40° ESE 22:01:44 10° S visible
11 Oct 7.3 21:18:59 10° ENE 21:22:20 19° ESE 21:25:44 10° SSE visible
12 Oct 7.6 12:45:53 10° SSW 12:49:22 19° WSW 12:52:54 10° WNW visible
13 Oct 6.3 12:09:49 10° S 12:14:29 38° WSW 12:19:17 10° NW visible
13 Oct 6.3 21:46:29 10° NE 21:50:46 35° ESE 21:55:07 10° S visible
14 Oct 8.2 13:16:36 10° SW 13:17:41 11° WSW 13:18:47 10° WSW visible
14 Oct 7.6 21:12:55 10° ENE 21:15:55 17° ESE 21:18:56 10° SSE visible
15 Oct 7.4 12:39:06 10° SSW 12:42:58 22° WSW 12:46:54 10° WNW visible
